Regional Weather Roundup
Issued by NWS Jackson, KY

Home | Current Version | Previous Version | Graphics & Text | Print | Product List | Glossary On
Versions: 1 2 3 4 5 6 7 8 9 10 11 12 13 14 15 16 17 18 19 20 21 22 23 24 25 26 27 28 29 30 31 32 33 34 35 36 37 38 39 40 41 42 43 44 45 46 47 48 49 50
000
ASUS43 KJKL 041110
RWRJKL

EAST KENTUCKY HOURLY WEATHER ROUNDUP
NATIONAL WEATHER SERVICE JACKSON KY
600 AM EST WED MAR 04 2015

NOTE: "FAIR" INDICATES FEW OR NO CLOUDS BELOW 12,000 FEET WITH
NO SIGNIFICANT WEATHER AND/OR OBSTRUCTIONS TO VISIBILITY.

* THESE REPORTS ARE NOT UNDER NWS QUALITY CONTROL AND MAY NOT
  REPORT WEATHER SUCH AS PRECIPITATION AND FOG.

KYZ079-080-083-085-087-088-110-112-115-119-120-041200
...EASTERN KENTUCKY...

CITY           SKY/WX    TMP DP  RH WIND       PRES   REMARKS
JACKSON        RAIN      50  48  93 NW8       29.92R FOG
LONDON         RAIN      52  47  83 N13       29.90R
SOMERSET*      CLOUDY    48  48 100 NE10      29.91S
MONTICELLO*    CLOUDY    52  51  96 N7        29.94R
MIDDLESBORO*   RAIN      51  50  99 N5        29.90R
HAZARD APT*    CLOUDY    52  52 100 N3        29.91R FOG
BLACK MTN*       N/A     50  50 100 SW10        N/A
PIKEVILLE APT* RAIN      50  50 100 N5        29.91R
BIG SANDY*     RAIN      50  50  99 N3        29.92R
MOREHEAD APT*  LGT RAIN  43  41  93 S3        29.94R
$$

KYZ035-036-041-042-044-050-067-078-099-041200
...CENTRAL KENTUCKY...

CITY           SKY/WX    TMP DP  RH WIND       PRES   REMARKS
MT STERLING*   RAIN      43  43 100 CALM      29.93R
FLEMING/MASON* RAIN      39  39 100 CALM      29.93R VSB 3/4
DANVILLE*      DRIZZLE   43  43 100 CALM      29.93S
RICHMOND*      CLOUDY    45  43  93 E3        29.93R
LEXINGTON      RAIN      41  41 100 CALM      29.91S FOG
FRANKFORT      RAIN      41  40  96 CALM      29.91R FOG
$$

KYZ091>093-OHZ055-061-077-WVZ005-015-034-035-042-041200
...SOUTHERN OHIO/WEST VIRGINIA...

CITY           SKY/WX    TMP DP  RH WIND       PRES   REMARKS
COVINGTON      LGT RAIN  37  36  96 CALM      29.91R FOG
COLUMBUS       CLOUDY    33  33 100 W3        29.90R FOG
DAYTON         LGT RAIN  34  32  92 W5        29.90R WCI  30
WILMINGTON     LGT RAIN  34  33  96 SW3       29.89R FOG
HUNTINGTON     LGT RAIN  44  44 100 NW5       29.93R FOG
CHARLESTON     LGT RAIN  49  47  93 NE3       29.90R FOG
PINEVILLE*     MIX PCPN  42  42 100 MISG      29.95R VSB 3/4
BECKLEY        LGT RAIN  47  46  97 NW3       29.89R VSB 3/4
BLUEFIELD      HVY RAIN  56  51  84 W17G26    29.90R
$$

VAZ002-007-008-TNZ017-027-036-066-071-041200
...SOUTHWEST VIRGINIA/EAST TENNESSEE...

CITY           SKY/WX    TMP DP  RH WIND       PRES   REMARKS
WISE*          FOG       52  52 100 SW17G28   29.91S VSB 1
JONESVILLE*    RAIN      39  39 100 CALM      29.93F VSB 3/4
ABINGDON*      RAIN      48  48 100 CALM      29.93S VSB 3/4
BRISTOL        LGT RAIN  46  45  96 N3        29.93S VSB 1/2
KNOXVILLE      LGT RAIN  59  58  96 SW14      29.91S
OAK RIDGE      LGT RAIN  54  53  97 W3        29.93S FOG
CROSSVILLE     LGT RAIN  60  58  92 S7        29.92S FOG
NASHVILLE      LGT RAIN  52  50  93 NW13      29.89R
$$

...KEY TO REMARKS...
VSB - VISIBILITY IN MILES
WCI - WIND CHILL INDEX
HX  - HEAT INDEX

$$


USA.gov is the U.S. government's official web portal to all federal, state and local government web resources and services.